SCP
0 0 0 0 0 -0 0 0 0 0 0 0 0 0 0 0 0 0 0 0 0 0 0 -0 0 0 -0 0 -0 0 0 0 0 0 0 0 0 0 0 0 0 0 0 -0
0 0 0 0 0 0 0 0 0 0 0 0 0 0 0 0 0 0 0 0 0 0 0 -0 0 0 0 0 -0 0 0 0 0 0 0 0 0 0 0 0 0 0 0 -0
0 0 0 0 0 0 0 0 0 0 0 0 0 0 0 0 0 0 0 0 0 0 0 0 0 0 0 0 0 -0 0 0 0 0 0 0 0 0 0 0 0 0 0 -0
0 0 0 0 0 0 0 0 0 0 0 0 0 0 0 0 0 0 0 0 0 -0 0 0 0 0 0 -0 -0 0 0 0 0 0 0 0 0 0 0 0 0 0 -0 -0
0 0 0 0 0 0 0 0 0 0 0 0 0 0 0 0 0 0 0 0 0 -0 0 0 -0 0 -0 0 0 0 0 -0 0 -0 0 -0 0 0 0 0 0 0 -0 -0
0 0 0 0 0 0 0 0 0 0 0 0 0 0 0 0 0 0 0 0 -0 -0 0 0 0 -0 -0 -0 0 -0 0 0 0 -0 0 0 -0 -0 0 0 0 0 -0 -0
0 0 0 0 0 0 0 0 0 0 0 0 0 0 0 0 0 0 0 0 0 0 -0 0 -0 0 -0 -0 -0 0 -0 -0 -0 0 -0 -0 0 0 0 0 0 0 0 -0
0 0 0 0 0 0 0 0 0 0 0 0 0 0 0 0 0 0 0 0 0 0 0 0 0 0 -0 -0 -0 -0 -0 0 0 -0 0 -0 0 0 0 0 0 0 0 0
0 0 0 0 0 0 0 0 0 0 0 0 0 0 0 0 0 0 0 0 0 -0 -0 0 0 0 0 0 0 -0 -0 -0 -0 0 0 0 0 0 0 0 0 0 0 0
0 0 0 0 0 0 0 0 0 0 0 0 0 0 0 0 0 0 0 0 0 0 -0 0 0 0 0 0 -0 -0 0 -0 0 0 0 0 0 -0 0 0 0 0 0 0
0 0 0 0 0 0 0 0 0 0 0 0 0 0 0 0 0 0 0 0 0 0 -0 0 0 0 0 0 0 0 0 0 0 0 0 0 -0 -0 0 0 0 0 0 0
0 0 0 0 0 0 0 0 0 0 0 0 0 0 -0 -0 -0 0 0 0 0 0 -0 0 0 0 0 0 0 -0 -0 -0 -0 -0 0 0 0 0 0 0 0 0 0 0
0 0 0 0 0 0 0 0 0 0 0 0 0 0 0 0 -0 -0 0 0 0 0 0 0 0 0 0 0 -0 -0 0 -0 0 0 0 0 0 0 0 0 0 0 0 0
0 0 0 0 0 0 0 0 0 0 0 0 0 0 0 -0 0 -0 -0 0 0 0 0 0 0 0 0 0 0 -0 0 0 0 0 0 -0 -0 0 0 0 0 0 0 0
0 0 0 0 0 0 0 0 0 0 0 0 0 0 0 -0 0 -0 0 0 0 0 0 0 0 0 0 0 0 0 0 0 0 0 0 0 0 0 0 0 0 0 0 0
0 0 0 0 0 0 0 0 0 0 0 0 0 0 0 0 0 0 0 0 0 0 0 0 0 0 0 -0 0 0 0 0 0 0 0 0 -0 0 -0 0 0 0 0 0
0 0 0 0 0 0 0 0 0 0 0 0 0 0 0 0 0 0 0 0 0 0 0 0 0 0 0 0 0 -0 0 0 -0 -0 0 0 0 0 -0 0 0 0 0 0
0 0 0 0 0 0 0 0 -0 -0 0 0 0 0 0 0 0 0 0 0 0 0 0 0 0 0 -0 -0 0 0 -0 -0 0 -0 0 -0 0 0 -0 0 0 0 0 0
0 0 0 0 0 0 0 0 0 0 0 0 0 0 0 0 0 0 0 0 0 0 0 0 0 -0 -0 -0 -0 0 -0 0 0 -0 -0 -0 -0 -0 0 0 0 0 0 0
0 0 0 0 0 0 0 0 0 0 0 0 0 0 0 0 0 0 0 0 0 0 0 0 0 0 -0 0 -0 -0 0 0 0 0 -0 -0 -0 -0 -0 0 0 0 0 0
0 0 0 0 0 0 0 0 0 0 0 0 0 0 0 0 0 0 0 0 0 0 0 0 0 0 0 0 0 -0 -0 0 0 0 -0 0 0 0 0 0 0 0 0 0
0 0 0 0 0 0 0 0 0 0 0 0 0 0 0 0 0 0 0 0 0 0 0 0 0 0 0 0 0 -0 -0 -0 -0 -0 0 -0 -0 0 0 0 0 0 0 0
0 0 0 0 0 0 0 0 0 0 0 0 0 0 0 0 0 0 0 0 0 0 0 0 0 0 0 0 0 -0 -0 -0 -0 -0 -0 -0 0 0 0 0 0 0 0 0
0 0 0 0 0 0 0 0 0 0 0 0 0 0 0 0 0 0 0 0 0 0 0 -0 0 0 0 0 0 0 -0 -0 -0 -0 -0 -0 0 0 0 0 0 0 0 0
0 0 0 0 0 0 0 0 0 0 0 0 0 0 0 0 0 0 0 0 0 0 0 0 0 0 0 0 0 0 -0 -0 0 -0 -0 -0 -0 -0 0 0 -0 0 0 0
0 0 0 0 0 0 0 0 0 0 0 0 0 0 0 0 0 0 0 0 -0 0 0 0 0 0 0 0 0 0 0 0 0 0 -0 -0 -0 0 0 0 0 0 0 0
0 0 0 0 0 0 0 0 0 0 0 0 0 0 0 0 0 0 0 0 0 0 0 -0 0 0 0 0 0 0 0 0 0 0 0 -0 -0 -0 -0 -0 0 0 0 0
Wind_Speed_500mb
60 61 61 65 69 67 56 16 4 8 13 8 4 1 13 27 15 32 8 7 9 6 8 8 5 9 6 15 7 9 7 4 6 17 16 15 8 8 5 13 14 21 2 17
58 59 60 62 63 60 57 23 10 10 12 5 6 11 10 9 12 17 4 7 8 2 6 9 9 10 7 13 1 1 5 0 6 15 6 5 4 7 13 3 5 22 20 18
55 56 59 58 59 52 40 16 8 9 7 8 1 8 7 8 24 25 16 15 6 7 9 12 12 21 13 6 14 19 9 8 12 11 10 8 11 17 12 6 7 25 41 37
54 52 55 58 54 48 31 17 5 6 8 8 12 7 7 13 14 9 15 8 5 13 12 22 15 9 14 13 22 2 10 9 9 15 23 30 29 29 38 31 22 11 28 34
55 52 52 55 54 46 17 16 12 11 30 24 9 7 6 14 24 10 11 12 29 23 18 25 37 27 16 14 11 10 9 8 8 24 32 35 33 42 38 35 36 26 29 45
56 54 50 48 51 46 16 22 12 11 14 8 5 8 12 26 24 15 23 30 28 18 27 34 51 54 54 37 18 12 13 5 5 11 11 20 25 33 40 30 23 18 28 19
48 53 49 44 38 38 34 24 18 8 8 7 12 23 39 34 26 20 36 41 14 31 70 73 52 44 40 33 32 31 12 7 7 10 11 12 4 19 16 36 27 28 28 23
50 47 49 42 35 26 31 25 15 7 9 15 29 16 17 38 34 18 24 42 45 49 32 9 11 8 6 3 13 26 28 13 6 6 7 17 19 9 10 9 11 5 16 27
54 51 48 40 32 26 26 25 12 14 13 7 14 29 27 14 15 7 21 39 36 29 7 6 7 6 7 8 17 3 27 26 11 5 7 8 8 21 26 21 13 17 29 26
58 54 44 34 28 26 22 29 19 18 14 28 22 13 10 18 12 9 16 21 16 21 9 7 4 6 12 8 10 9 4 7 20 18 11 10 11 27 25 9 4 34 37 38
57 47 37 32 26 27 24 33 30 25 18 55 37 42 41 28 23 7 15 19 8 8 14 8 6 6 7 7 5 10 5 6 3 6 7 8 31 28 4 11 22 28 44 43
53 45 39 35 27 31 31 38 30 31 33 58 85 80 76 75 68 44 9 7 5 5 3 2 6 5 6 9 6 6 5 3 5 4 7 17 26 26 38 28 21 29 46 62
53 48 39 34 32 31 27 40 39 38 36 54 25 18 8 14 22 18 17 11 6 4 3 3 5 8 4 5 2 7 7 1 6 5 10 24 44 27 47 46 39 55 60 63
50 47 40 29 27 31 32 39 41 36 16 11 16 14 39 48 28 27 26 19 10 6 7 8 5 6 10 4 4 5 8 11 10 11 8 38 22 50 51 45 41 56 56 45
49 44 37 30 32 33 36 41 41 37 28 9 26 51 7 25 15 30 32 31 14 8 5 6 6 8 6 4 3 6 4 7 5 11 35 21 30 47 43 32 54 59 57 44
49 41 34 30 28 27 27 12 4 5 37 9 8 21 15 22 4 27 32 33 18 8 7 9 10 12 6 2 5 13 23 26 18 13 47 42 37 29 32 37 55 59 67 32
45 37 30 28 25 21 19 8 2 2 20 8 9 14 4 12 11 23 31 29 18 13 8 9 8 9 9 4 5 10 26 19 30 41 36 27 22 34 38 32 42 59 56 48
42 33 28 26 26 26 19 3 24 23 17 10 5 8 14 8 10 10 20 14 14 13 10 10 7 5 2 6 14 24 13 31 30 56 43 37 37 34 30 22 25 42 51 51
35 23 16 2 4 4 6 10 16 32 21 7 7 3 7 4 10 11 9 13 5 9 6 7 3 3 6 11 18 29 24 20 31 50 41 46 46 33 28 27 34 43 45 48
23 8 4 3 2 10 11 4 5 11 10 13 7 11 6 7 3 5 3 7 5 4 8 4 5 6 18 19 11 13 29 31 29 39 40 37 43 35 28 28 34 36 33 34
21 14 5 6 9 11 6 6 9 8 6 12 13 33 9 11 6 5 7 3 2 3 4 4 4 4 6 11 5 11 20 29 32 28 33 36 34 28 30 35 36 33 28 26
32 21 19 11 4 7 5 6 7 8 8 10 9 14 24 11 15 5 5 3 2 8 8 3 4 6 4 16 10 6 12 18 25 30 23 28 27 25 25 28 30 29 26 29
6 4 6 5 5 6 9 9 7 6 7 3 8 6 9 13 14 3 4 2 8 3 5 6 7 8 7 24 16 9 10 15 17 25 26 29 23 28 36 30 31 28 26 28
3 6 8 8 9 10 10 8 6 7 22 34 36 18 12 9 6 5 5 6 5 1 3 9 6 19 15 19 15 10 9 14 15 20 23 31 29 22 21 27 26 26 32 32
8 9 10 14 23 22 17 20 22 34 41 28 3 3 7 4 4 5 2 1 5 9 9 7 15 20 21 14 15 12 11 10 10 12 12 19 22 24 20 14 19 14 17 24
11 16 10 18 8 12 7 14 31 35 22 31 7 2 5 8 6 6 11 10 10 8 7 18 21 25 23 17 20 9 9 6 9 12 14 22 26 24 23 19 7 11 10 17
11 16 27 42 38 28 30 26 40 44 26 5 5 6 10 5 4 3 8 9 7 11 10 17 24 26 27 24 14 13 12 9 8 10 13 21 26 22 22 29 23 16 16 12
Wind_Direction_500mb
354 354 356 360 353 353 3 2 44 324 327 36 44 338 298 298 292 328 286 237 269 299 281 293 289 300 273 12 356 341 335 160 252 237 232 261 249 210 198 213 230 238 313 259
351 353 356 359 359 355 350 347 312 28 355 67 316 294 283 266 304 313 297 273 248 292 287 319 249 259 205 263 32 61 312 306 314 328 43 75 213 245 222 206 298 239 231 242
347 350 353 359 1 357 354 356 348 338 36 45 92 303 296 313 318 301 341 281 296 345 285 220 270 282 294 227 253 256 132 228 202 190 245 307 288 298 218 210 210 247 242 275
344 346 348 353 1 3 6 8 350 9 308 338 321 279 275 320 320 283 306 287 300 310 278 301 259 243 301 283 276 94 163 249 205 248 265 269 262 263 269 257 244 212 265 269
339 342 343 345 352 3 7 4 0 327 295 291 297 292 291 312 332 310 300 278 308 301 262 254 283 285 267 245 287 177 175 258 229 272 259 259 274 264 247 246 248 252 260 273
336 338 341 341 344 356 13 354 325 286 276 305 301 298 310 308 318 291 274 301 308 302 278 287 278 271 262 250 243 215 175 200 337 259 283 319 271 237 220 229 215 218 244 246
336 334 337 339 342 343 349 356 334 298 276 285 292 297 297 293 311 294 302 304 294 300 308 300 289 262 250 240 235 224 232 167 203 274 287 253 296 9 208 219 214 221 238 259
322 327 325 330 332 330 327 343 317 284 287 292 298 297 314 307 307 292 281 300 303 317 311 328 327 343 358 257 217 202 205 201 260 261 243 282 283 39 17 344 267 17 300 275
324 319 319 319 321 318 311 324 298 248 289 262 275 316 299 295 310 274 304 321 338 347 27 344 336 327 319 328 341 347 191 203 196 243 280 290 24 3 352 322 259 7 321 316
322 320 317 316 316 312 302 297 297 265 260 278 276 238 299 295 281 288 291 324 329 4 5 12 344 312 332 333 316 336 151 194 230 248 254 251 20 315 314 212 328 315 326 321
324 320 313 313 305 306 309 295 296 269 256 289 276 271 261 262 261 271 322 334 10 350 18 3 331 297 314 298 284 334 324 304 264 278 250 269 1 326 23 275 303 332 329 327
321 319 310 304 296 289 296 294 303 295 259 270 290 288 271 269 272 263 273 276 275 326 352 360 300 288 302 300 328 341 355 314 296 238 257 246 275 290 296 342 357 341 337 327
318 319 309 308 304 303 293 286 288 292 285 302 291 301 281 308 313 284 216 232 229 195 17 290 281 277 281 305 315 297 272 196 258 284 257 255 323 311 345 352 346 340 338 330
317 318 311 302 299 293 287 282 282 275 271 283 288 326 297 290 282 252 227 245 280 246 252 213 256 265 213 289 265 290 244 325 294 266 311 332 32 331 333 336 338 334 333 335
317 317 310 299 301 303 295 295 286 265 221 284 290 311 343 322 264 209 217 219 229 211 200 214 235 254 264 264 316 261 225 262 329 309 317 317 308 313 322 335 317 322 332 333
321 317 302 294 301 304 319 317 327 235 205 284 301 316 326 332 167 207 206 215 220 226 235 237 257 252 245 283 266 263 295 298 293 287 312 305 317 323 328 353 321 332 338 5
320 313 299 288 288 276 256 252 245 223 185 255 291 309 304 324 193 202 222 229 240 225 260 242 241 269 213 181 238 275 328 324 322 327 326 313 321 321 345 351 332 346 355 47
316 309 295 288 280 271 277 333 208 177 227 253 282 278 320 196 187 220 213 210 204 225 248 271 230 257 238 270 260 307 304 334 335 340 349 338 331 332 341 356 348 347 7 31
324 315 317 284 129 183 264 288 246 227 232 252 222 212 262 228 242 230 212 216 207 227 228 249 200 324 232 236 292 318 340 323 324 343 352 349 345 357 359 356 0 5 11 20
340 323 301 226 126 282 279 251 230 221 219 226 242 203 263 301 278 276 287 208 224 214 236 216 205 261 276 286 300 318 331 338 341 352 345 353 343 3 12 14 10 2 13 7
3 347 296 285 259 306 241 227 200 205 245 228 239 213 207 238 189 241 219 224 249 299 264 259 222 270 245 198 245 321 337 345 355 356 0 12 19 23 34 37 44 50 43 36
325 306 309 318 248 235 256 222 182 212 242 215 203 228 206 231 213 185 215 202 55 253 342 18 259 246 242 179 185 359 8 20 8 9 5 17 12 26 45 49 40 44 53 63
337 267 264 231 229 223 218 220 231 216 213 351 269 247 237 203 211 165 97 123 234 331 35 243 233 245 154 163 168 165 53 36 23 23 26 26 22 35 40 31 38 40 57 72
276 252 255 202 212 233 209 194 218 231 267 277 263 227 192 212 160 158 159 229 75 224 336 244 247 212 161 170 185 181 104 53 23 15 12 28 32 33 43 20 20 39 55 74
246 228 238 225 228 242 243 251 275 297 310 319 185 15 203 234 170 200 124 71 259 199 228 234 230 211 203 209 204 197 122 72 63 67 89 37 39 40 48 53 348 23 58 78
235 233 259 253 261 269 277 307 308 327 330 333 151 137 297 236 175 140 213 143 222 248 219 226 198 206 214 212 211 176 146 82 71 56 59 50 50 50 54 62 65 42 36 73
235 246 248 261 278 272 278 303 299 306 316 233 156 192 201 299 235 229 176 206 216 202 255 219 212 217 216 209 209 192 164 130 107 77 49 43 53 72 67 67 60 68 72 73
Wind_Speed_850mb
60 61 61 65 69 67 56 16 4 8 13 8 4 1 13 27 15 32 8 7 9 6 8 8 5 9 6 15 7 9 7 4 6 17 16 15 8 8 5 13 14 21 2 17
58 59 60 62 63 60 57 23 10 10 12 5 6 11 10 9 12 17 4 7 8 2 6 9 9 10 7 13 1 1 5 0 6 15 6 5 4 7 13 3 5 22 20 18
55 56 59 58 59 52 40 16 8 9 7 8 1 8 7 8 24 25 16 15 6 7 9 12 12 21 13 6 14 19 9 8 12 11 10 8 11 17 12 6 7 25 41 37
54 52 55 58 54 48 31 17 5 6 8 8 12 7 7 13 14 9 15 8 5 13 12 22 15 9 14 13 22 2 10 9 9 15 23 30 29 29 38 31 22 11 28 34
55 52 52 55 54 46 17 16 12 11 30 24 9 7 6 14 24 10 11 12 29 23 18 25 37 27 16 14 11 10 9 8 8 24 32 35 33 42 38 35 36 26 29 45
56 54 50 48 51 46 16 22 12 11 14 8 5 8 12 26 24 15 23 30 28 18 27 34 51 54 54 37 18 12 13 5 5 11 11 20 25 33 40 30 23 18 28 19
48 53 49 44 38 38 34 24 18 8 8 7 12 23 39 34 26 20 36 41 14 31 70 73 52 44 40 33 32 31 12 7 7 10 11 12 4 19 16 36 27 28 28 23
50 47 49 42 35 26 31 25 15 7 9 15 29 16 17 38 34 18 24 42 45 49 32 9 11 8 6 3 13 26 28 13 6 6 7 17 19 9 10 9 11 5 16 27
54 51 48 40 32 26 26 25 12 14 13 7 14 29 27 14 15 7 21 39 36 29 7 6 7 6 7 8 17 3 27 26 11 5 7 8 8 21 26 21 13 17 29 26
58 54 44 34 28 26 22 29 19 18 14 28 22 13 10 18 12 9 16 21 16 21 9 7 4 6 12 8 10 9 4 7 20 18 11 10 11 27 25 9 4 34 37 38
57 47 37 32 26 27 24 33 30 25 18 55 37 42 41 28 23 7 15 19 8 8 14 8 6 6 7 7 5 10 5 6 3 6 7 8 31 28 4 11 22 28 44 43
53 45 39 35 27 31 31 38 30 31 33 58 85 80 76 75 68 44 9 7 5 5 3 2 6 5 6 9 6 6 5 3 5 4 7 17 26 26 38 28 21 29 46 62
53 48 39 34 32 31 27 40 39 38 36 54 25 18 8 14 22 18 17 11 6 4 3 3 5 8 4 5 2 7 7 1 6 5 10 24 44 27 47 46 39 55 60 63
50 47 40 29 27 31 32 39 41 36 16 11 16 14 39 48 28 27 26 19 10 6 7 8 5 6 10 4 4 5 8 11 10 11 8 38 22 50 51 45 41 56 56 45
49 44 37 30 32 33 36 41 41 37 28 9 26 51 7 25 15 30 32 31 14 8 5 6 6 8 6 4 3 6 4 7 5 11 35 21 30 47 43 32 54 59 57 44
49 41 34 30 28 27 27 12 4 5 37 9 8 21 15 22 4 27 32 33 18 8 7 9 10 12 6 2 5 13 23 26 18 13 47 42 37 29 32 37 55 59 67 32
45 37 30 28 25 21 19 8 2 2 20 8 9 14 4 12 11 23 31 29 18 13 8 9 8 9 9 4 5 10 26 19 30 41 36 27 22 34 38 32 42 59 56 48
42 33 28 26 26 26 19 3 24 23 17 10 5 8 14 8 10 10 20 14 14 13 10 10 7 5 2 6 14 24 13 31 30 56 43 37 37 34 30 22 25 42 51 51
35 23 16 2 4 4 6 10 16 32 21 7 7 3 7 4 10 11 9 13 5 9 6 7 3 3 6 11 18 29 24 20 31 50 41 46 46 33 28 27 34 43 45 48
23 8 4 3 2 10 11 4 5 11 10 13 7 11 6 7 3 5 3 7 5 4 8 4 5 6 18 19 11 13 29 31 29 39 40 37 43 35 28 28 34 36 33 34
21 14 5 6 9 11 6 6 9 8 6 12 13 33 9 11 6 5 7 3 2 3 4 4 4 4 6 11 5 11 20 29 32 28 33 36 34 28 30 35 36 33 28 26
32 21 19 11 4 7 5 6 7 8 8 10 9 14 24 11 15 5 5 3 2 8 8 3 4 6 4 16 10 6 12 18 25 30 23 28 27 25 25 28 30 29 26 29
6 4 6 5 5 6 9 9 7 6 7 3 8 6 9 13 14 3 4 2 8 3 5 6 7 8 7 24 16 9 10 15 17 25 26 29 23 28 36 30 31 28 26 28
3 6 8 8 9 10 10 8 6 7 22 34 36 18 12 9 6 5 5 6 5 1 3 9 6 19 15 19 15 10 9 14 15 20 23 31 29 22 21 27 26 26 32 32
8 9 10 14 23 22 17 20 22 34 41 28 3 3 7 4 4 5 2 1 5 9 9 7 15 20 21 14 15 12 11 10 10 12 12 19 22 24 20 14 19 14 17 24
11 16 10 18 8 12 7 14 31 35 22 31 7 2 5 8 6 6 11 10 10 8 7 18 21 25 23 17 20 9 9 6 9 12 14 22 26 24 23 19 7 11 10 17
11 16 27 42 38 28 30 26 40 44 26 5 5 6 10 5 4 3 8 9 7 11 10 17 24 26 27 24 14 13 12 9 8 10 13 21 26 22 22 29 23 16 16 12
Wind_Direction_850mb
354 354 356 360 353 353 3 2 44 324 327 36 44 338 298 298 292 328 286 237 269 299 281 293 289 300 273 12 356 341 335 160 252 237 232 261 249 210 198 213 230 238 313 259
351 353 356 359 359 355 350 347 312 28 355 67 316 294 283 266 304 313 297 273 248 292 287 319 249 259 205 263 32 61 312 306 314 328 43 75 213 245 222 206 298 239 231 242
347 350 353 359 1 357 354 356 348 338 36 45 92 303 296 313 318 301 341 281 296 345 285 220 270 282 294 227 253 256 132 228 202 190 245 307 288 298 218 210 210 247 242 275
344 346 348 353 1 3 6 8 350 9 308 338 321 279 275 320 320 283 306 287 300 310 278 301 259 243 301 283 276 94 163 249 205 248 265 269 262 263 269 257 244 212 265 269
339 342 343 345 352 3 7 4 0 327 295 291 297 292 291 312 332 310 300 278 308 301 262 254 283 285 267 245 287 177 175 258 229 272 259 259 274 264 247 246 248 252 260 273
336 338 341 341 344 356 13 354 325 286 276 305 301 298 310 308 318 291 274 301 308 302 278 287 278 271 262 250 243 215 175 200 337 259 283 319 271 237 220 229 215 218 244 246
336 334 337 339 342 343 349 356 334 298 276 285 292 297 297 293 311 294 302 304 294 300 308 300 289 262 250 240 235 224 232 167 203 274 287 253 296 9 208 219 214 221 238 259
322 327 325 330 332 330 327 343 317 284 287 292 298 297 314 307 307 292 281 300 303 317 311 328 327 343 358 257 217 202 205 201 260 261 243 282 283 39 17 344 267 17 300 275
324 319 319 319 321 318 311 324 298 248 289 262 275 316 299 295 310 274 304 321 338 347 27 344 336 327 319 328 341 347 191 203 196 243 280 290 24 3 352 322 259 7 321 316
322 320 317 316 316 312 302 297 297 265 260 278 276 238 299 295 281 288 291 324 329 4 5 12 344 312 332 333 316 336 151 194 230 248 254 251 20 315 314 212 328 315 326 321
324 320 313 313 305 306 309 295 296 269 256 289 276 271 261 262 261 271 322 334 10 350 18 3 331 297 314 298 284 334 324 304 264 278 250 269 1 326 23 275 303 332 329 327
321 319 310 304 296 289 296 294 303 295 259 270 290 288 271 269 272 263 273 276 275 326 352 360 300 288 302 300 328 341 355 314 296 238 257 246 275 290 296 342 357 341 337 327
318 319 309 308 304 303 293 286 288 292 285 302 291 301 281 308 313 284 216 232 229 195 17 290 281 277 281 305 315 297 272 196 258 284 257 255 323 311 345 352 346 340 338 330
317 318 311 302 299 293 287 282 282 275 271 283 288 326 297 290 282 252 227 245 280 246 252 213 256 265 213 289 265 290 244 325 294 266 311 332 32 331 333 336 338 334 333 335
317 317 310 299 301 303 295 295 286 265 221 284 290 311 343 322 264 209 217 219 229 211 200 214 235 254 264 264 316 261 225 262 329 309 317 317 308 313 322 335 317 322 332 333
321 317 302 294 301 304 319 317 327 235 205 284 301 316 326 332 167 207 206 215 220 226 235 237 257 252 245 283 266 263 295 298 293 287 312 305 317 323 328 353 321 332 338 5
320 313 299 288 288 276 256 252 245 223 185 255 291 309 304 324 193 202 222 229 240 225 260 242 241 269 213 181 238 275 328 324 322 327 326 313 321 321 345 351 332 346 355 47
316 309 295 288 280 271 277 333 208 177 227 253 282 278 320 196 187 220 213 210 204 225 248 271 230 257 238 270 260 307 304 334 335 340 349 338 331 332 341 356 348 347 7 31
324 315 317 284 129 183 264 288 246 227 232 252 222 212 262 228 242 230 212 216 207 227 228 249 200 324 232 236 292 318 340 323 324 343 352 349 345 357 359 356 0 5 11 20
340 323 301 226 126 282 279 251 230 221 219 226 242 203 263 301 278 276 287 208 224 214 236 216 205 261 276 286 300 318 331 338 341 352 345 353 343 3 12 14 10 2 13 7
3 347 296 285 259 306 241 227 200 205 245 228 239 213 207 238 189 241 219 224 249 299 264 259 222 270 245 198 245 321 337 345 355 356 0 12 19 23 34 37 44 50 43 36
325 306 309 318 248 235 256 222 182 212 242 215 203 228 206 231 213 185 215 202 55 253 342 18 259 246 242 179 185 359 8 20 8 9 5 17 12 26 45 49 40 44 53 63
337 267 264 231 229 223 218 220 231 216 213 351 269 247 237 203 211 165 97 123 234 331 35 243 233 245 154 163 168 165 53 36 23 23 26 26 22 35 40 31 38 40 57 72
276 252 255 202 212 233 209 194 218 231 267 277 263 227 192 212 160 158 159 229 75 224 336 244 247 212 161 170 185 181 104 53 23 15 12 28 32 33 43 20 20 39 55 74
246 228 238 225 228 242 243 251 275 297 310 319 185 15 203 234 170 200 124 71 259 199 228 234 230 211 203 209 204 197 122 72 63 67 89 37 39 40 48 53 348 23 58 78
235 233 259 253 261 269 277 307 308 327 330 333 151 137 297 236 175 140 213 143 222 248 219 226 198 206 214 212 211 176 146 82 71 56 59 50 50 50 54 62 65 42 36 73
235 246 248 261 278 272 278 303 299 306 316 233 156 192 201 299 235 229 176 206 216 202 255 219 212 217 216 209 209 192 164 130 107 77 49 43 53 72 67 67 60 68 72 73